Weather History for Chesapeake, VA

Change the Weather History Date:

Saturday, August 31, 2013

  Actual Average (KORF) Record (KORF)
Temperature  
Mean Temperature 76 °F 76 °F  
Max Temperature 87 °F 83 °F 100 °F (1932)
Min Temperature 64 °F 69 °F 56 °F (1965)
Degree Days  
Heating Degree Days 0 0  
Month to date heating degree days 0  
Since 1 June heating degree days 6  
Since 1 July heating degree days 0  
Cooling Degree Days 10 11  
Month to date cooling degree days 400  
Year to date cooling degree days 1335  
Since 1 June cooling degree days 1169  
Growing Degree Days 26 (Base 50)    
Moisture  
Dew Point 69 °F    
Average Humidity 81    
Maximum Humidity 100    
Minimum Humidity 55    
Precipitation  
Precipitation 0.00 in 0.15 in 7.41 in (1964)
Month to date precipitation 5.52  
Year to date precipitation 31.94  
Snow  
Snow 0.00 in 0.00 in 0.00 in (2002)
Month to date snowfall 0.0  
Since 1 July snowfall 0.0  
Snow Depth -    
Sea Level Pressure  
Sea Level Pressure 29.94 in    
Wind  
Wind Speed 3 mph (South)    
Max Wind Speed 13 mph    
Max Gust Speed 17 mph    
Visibility 6 miles    
Events Fog , Rain    
T = Trace of Precipitation, MM = Missing Value Source: NWS Daily Summary

Daily Weather History Graph

Daily Weather History Graph

Search for Another Location

Airport:

Trip Planner

Search our weather history database for the weather conditions in past years. The results will help you decide how hot, cold, wet, or windy it might be!

Date:

Astronomy

Aug. 31, 2013 Rise Set
Actual Time 6:35 AM EDT 7:34 PM EDT
Civil Twilight 6:09 AM EDT 8:00 PM EDT
Nautical Twilight 5:37 AM EDT 8:32 PM EDT
Astronomical Twilight 5:05 AM EDT 9:04 PM EDT
Moon 2:07 AM EDT (8/31) 4:27 PM EDT (8/31)
Length of Visible Light 13h 51m
Length of Day
12h 58m
Waning Crescent, 21% of the Moon is Illuminated
Aug 31
Waning Crescent
Sep 5
New
Sep 12
First Quarter
Sep 19
Full
Sep 26
Last Quarter

Hourly Weather History & Observations

Time (EDT) Temp. Heat Index Dew Point Humidity Pressure Visibility Wind Dir Wind Speed Gust Speed Precip Events Conditions
12:15 AM 69.8 °F - 66.2 °F 88% 29.98 in 7.0 mi Calm Calm - N/A   Clear
12:35 AM 69.8 °F - 68.0 °F 94% 29.98 in 7.0 mi Calm Calm - N/A   Clear
12:55 AM 69.8 °F - 68.0 °F 94% 29.98 in 4.0 mi Calm Calm - N/A   Clear
1:15 AM 68.0 °F - 66.2 °F 94% 29.97 in 5.0 mi Calm Calm - N/A   Clear
1:35 AM 66.2 °F - 66.2 °F 100% 29.97 in 5.0 mi Calm Calm - N/A   Clear
1:55 AM 66.2 °F - 66.2 °F 100% 29.97 in 3.0 mi Calm Calm - N/A   Clear
2:15 AM 68.0 °F - 66.2 °F 94% 29.97 in 5.0 mi Calm Calm - N/A   Clear
2:35 AM 66.2 °F - 66.2 °F 100% 29.96 in 5.0 mi Calm Calm - N/A   Clear
2:55 AM 66.2 °F - 66.2 °F 100% 29.96 in 0.5 mi Calm Calm - N/A Fog Fog
3:15 AM 66.2 °F - 66.2 °F 100% 29.96 in 1.8 mi Calm Calm - N/A   Mostly Cloudy
3:35 AM 64.4 °F - 62.6 °F 94% 29.96 in 2.5 mi Calm Calm - N/A   Mostly Cloudy
3:55 AM 64.4 °F - 64.4 °F 100% 29.95 in 0.2 mi Calm Calm - N/A Fog Fog
4:15 AM 66.2 °F - 64.4 °F 94% 29.96 in 0.8 mi Calm Calm - N/A   Mostly Cloudy
4:35 AM 66.2 °F - 64.4 °F 94% 29.96 in 3.0 mi South 3.5 mph - N/A   Scattered Clouds
4:55 AM 66.2 °F - 64.4 °F 94% 29.96 in 5.0 mi South 3.5 mph - N/A   Clear
5:15 AM 66.2 °F - 64.4 °F 94% 29.96 in 2.5 mi Calm Calm - N/A   Clear
5:35 AM 66.2 °F - 66.2 °F 100% 29.97 in 4.0 mi Calm Calm - N/A   Clear
5:55 AM 66.2 °F - 64.4 °F 94% 29.97 in 1.8 mi Calm Calm - N/A   Overcast
6:15 AM 66.2 °F - 66.2 °F 100% 29.96 in 0.5 mi Calm Calm - N/A Fog Fog
6:35 AM 66.2 °F - 66.2 °F 100% 29.96 in 0.8 mi Calm Calm - N/A   Overcast
6:55 AM 66.2 °F - 66.2 °F 100% 29.97 in 0.8 mi Calm Calm - N/A   Overcast
7:15 AM 68.0 °F - 66.2 °F 94% 29.97 in 0.2 mi Calm Calm - N/A Fog Fog
7:35 AM 68.0 °F - 66.2 °F 94% 29.97 in 0.2 mi Calm Calm - N/A Fog Fog
7:55 AM 69.8 °F - 68.0 °F 94% 29.97 in 0.2 mi Calm Calm - N/A Rain Rain
8:15 AM 69.8 °F - 69.8 °F 100% 29.97 in 3.0 mi South 4.6 mph - N/A   Overcast
8:35 AM 71.6 °F - 69.8 °F 94% 29.97 in 1.5 mi South 5.8 mph - N/A   Overcast
8:55 AM 71.6 °F - 71.6 °F 100% 29.97 in 1.5 mi South 6.9 mph - N/A Rain Rain
9:15 AM 73.4 °F - 71.6 °F 94% 29.98 in 1.8 mi SSW 5.8 mph - N/A Rain Light Rain
9:35 AM 75.2 °F - 73.4 °F 94% 29.98 in 5.0 mi South 8.1 mph - N/A Rain Light Rain
9:55 AM 75.2 °F - 75.2 °F 100% 29.98 in 7.0 mi South 8.1 mph - N/A   Scattered Clouds
10:15 AM 78.8 °F - 73.4 °F 83% 29.98 in 7.0 mi South 8.1 mph - N/A   Clear
10:35 AM 80.6 °F 85.4 °F 73.4 °F 79% 29.97 in 7.0 mi SSW 9.2 mph - N/A   Scattered Clouds
10:55 AM 80.6 °F 84.6 °F 71.6 °F 74% 29.97 in 7.0 mi SSW 8.1 mph - N/A   Scattered Clouds
11:15 AM 82.4 °F 87.2 °F 71.6 °F 70% 29.97 in 10.0 mi SSW 9.2 mph - N/A   Scattered Clouds
11:35 AM 82.4 °F 87.2 °F 71.6 °F 70% 29.97 in 10.0 mi South 10.4 mph - N/A   Clear
11:55 AM 84.2 °F 89.6 °F 71.6 °F 66% 29.97 in 5.0 mi South 11.5 mph - N/A   Haze
12:15 PM 84.2 °F 89.6 °F 71.6 °F 66% 29.96 in 10.0 mi South 12.7 mph - N/A   Scattered Clouds
12:35 PM 84.2 °F 89.6 °F 71.6 °F 66% 29.96 in 7.0 mi South 10.4 mph 17.3 mph N/A   Scattered Clouds
12:55 PM 86.0 °F 90.4 °F 69.8 °F 58% 29.96 in 7.0 mi SSW 10.4 mph 17.3 mph N/A   Scattered Clouds
1:15 PM 86.0 °F 90.4 °F 69.8 °F 58% 29.95 in 7.0 mi SSW 9.2 mph - N/A   Clear
1:35 PM 86.0 °F 90.4 °F 69.8 °F 58% 29.95 in 7.0 mi South 11.5 mph - N/A   Scattered Clouds
1:55 PM 87.8 °F 92.6 °F 69.8 °F 55% 29.94 in 7.0 mi South 11.5 mph 17.3 mph N/A   Scattered Clouds
2:15 PM 87.8 °F 92.6 °F 69.8 °F 55% 29.94 in 4.0 mi SSW 9.2 mph - N/A   Haze
2:35 PM 87.8 °F 92.6 °F 69.8 °F 55% 29.93 in 7.0 mi South 11.5 mph 16.1 mph N/A   Scattered Clouds
2:55 PM 87.8 °F 92.6 °F 69.8 °F 55% 29.92 in 7.0 mi SSW 8.1 mph 17.3 mph N/A   Scattered Clouds
3:15 PM 87.8 °F 92.6 °F 69.8 °F 55% 29.91 in 7.0 mi SSW 9.2 mph - N/A   Scattered Clouds
3:35 PM 87.8 °F 92.6 °F 69.8 °F 55% 29.91 in 7.0 mi SSW 9.2 mph - N/A   Clear
3:55 PM 87.8 °F 92.6 °F 69.8 °F 55% 29.90 in 7.0 mi SSW 11.5 mph - N/A   Clear
4:15 PM 87.8 °F 92.6 °F 69.8 °F 55% 29.89 in 10.0 mi SSW 12.7 mph - N/A   Clear
4:35 PM 87.8 °F 92.6 °F 69.8 °F 55% 29.89 in 10.0 mi South 10.4 mph - N/A   Scattered Clouds
4:55 PM 87.8 °F 93.8 °F 71.6 °F 58% 29.88 in 7.0 mi South 8.1 mph - N/A   Clear
5:15 PM 87.8 °F 92.6 °F 69.8 °F 55% 29.88 in 7.0 mi South 11.5 mph 16.1 mph N/A   Clear
5:35 PM 87.8 °F 92.6 °F 69.8 °F 55% 29.87 in 7.0 mi South 8.1 mph - N/A   Scattered Clouds
5:55 PM 86.0 °F 91.8 °F 71.6 °F 62% 29.87 in 7.0 mi South 8.1 mph - N/A   Scattered Clouds
6:15 PM 84.2 °F 89.6 °F 71.6 °F 66% 29.88 in 7.0 mi South 4.6 mph - N/A   Scattered Clouds
6:35 PM 84.2 °F 89.6 °F 71.6 °F 66% 29.88 in 7.0 mi South 6.9 mph - N/A   Scattered Clouds
6:55 PM 82.4 °F 87.2 °F 71.6 °F 70% 29.89 in 5.0 mi South 4.6 mph - N/A   Haze
7:15 PM 80.6 °F 85.4 °F 73.4 °F 79% 29.90 in 7.0 mi SSE 3.5 mph - N/A   Clear
7:35 PM 80.6 °F 85.4 °F 73.4 °F 79% 29.90 in 10.0 mi Calm Calm - N/A   Clear
7:55 PM 78.8 °F - 71.6 °F 78% 29.90 in 7.0 mi SSE 4.6 mph - N/A   Clear
8:15 PM 78.8 °F - 71.6 °F 78% 29.90 in 7.0 mi SSE 5.8 mph - N/A   Clear
8:35 PM 78.8 °F - 71.6 °F 78% 29.90 in 7.0 mi South 5.8 mph - N/A   Clear
8:55 PM 78.8 °F - 71.6 °F 78% 29.90 in 7.0 mi South 6.9 mph - N/A   Clear
9:15 PM 78.8 °F - 71.6 °F 78% 29.91 in 7.0 mi South 5.8 mph - N/A   Clear
9:35 PM 77.0 °F - 71.6 °F 83% 29.91 in 7.0 mi South 4.6 mph - N/A   Clear
9:55 PM 77.0 °F - 71.6 °F 83% 29.92 in 7.0 mi South 3.5 mph - N/A   Clear
10:15 PM 77.0 °F - 71.6 °F 83% 29.92 in 10.0 mi SSE 4.6 mph - N/A   Clear
10:35 PM 75.2 °F - 71.6 °F 89% 29.92 in 10.0 mi Calm Calm - N/A   Clear
10:55 PM 75.2 °F - 71.6 °F 89% 29.91 in 10.0 mi SSE 4.6 mph - N/A   Clear
11:15 PM 75.2 °F - 71.6 °F 89% 29.91 in 10.0 mi South 4.6 mph - N/A   Clear
11:35 PM 75.2 °F - 71.6 °F 89% 29.91 in 10.0 mi South 5.8 mph - N/A   Clear
11:55 PM 75.2 °F - 71.6 °F 89% 29.91 in 7.0 mi South 5.8 mph - N/A   Clear